| time (UTC) | temp F | wind direction | speed MPH | gust MPH | rain 1hr in | rain 24hr in | rain mn in | humidity % | barometer mb |
| 20260902052028 | 87 | 180 | 0.0 | 0.0 | 0.00 | 0.00 | 0.00 | 91 | 1000.0 |
| 20260902051029 | 86 | 158 | 0.0 | 0.0 | 0.00 | 0.00 | 0.00 | 89 | 1000.0 |
| 20260902050528 | 86 | 270 | 0.0 | 0.0 | 0.00 | 0.00 | 0.00 | 90 | 1000.0 |
| 20260902050028 | 86 | 23 | 0.0 | 0.0 | 0.00 | 0.00 | 0.00 | 91 | 1000.3 |
| 20260902044029 | 85 | 270 | 1.0 | 1.0 | 0.00 | 0.00 | 0.00 | 93 | 1000.3 |
| 20260902043028 | 85 | 315 | 0.0 | 0.0 | 0.00 | 0.00 | 0.00 | 94 | 1000.3 |
| 20260902042029 | 85 | 225 | 0.0 | 0.0 | 0.00 | 0.00 | 0.00 | 95 | 1000.3 |
| 20260902040528 | 83 | 270 | 0.0 | 0.0 | 0.00 | 0.00 | 0.00 | 96 | 1000.7 |
| 20260902040028 | 83 | 270 | 0.0 | 0.0 | 0.00 | 0.00 | 0.00 | 96 | 1000.3 |
| 20260902035028 | 85 | 270 | 0.0 | 0.0 | 0.00 | 0.00 | 0.00 | 94 | 1000.7 |
| 20260902034528 | 84 | 248 | 0.0 | 0.0 | 0.00 | 0.00 | 0.00 | 94 | 1000.7 |
| 20260902033740 | 84 | 180 | 1.0 | 1.0 | 0.00 | 0.00 | 0.00 | 95 | 1000.3 |
| 20260902032740 | 84 | 225 | 2.0 | 2.0 | 0.00 | 0.00 | 0.00 | 96 | 1000.3 |
| 20260902031739 | 83 | 225 | 2.0 | 2.0 | 0.00 | 0.00 | 0.00 | 97 | 1000.3 |
| 20260902030746 | 82 | 225 | 3.0 | 3.0 | 0.00 | 0.00 | 0.00 | 98 | 1000.3 |
| 20260901144509 | 81 | 225 | 2.0 | 2.0 | 0.00 | 0.00 | 0.00 | 94 | 999.7 |
| 20260901143509 | 82 | 270 | 2.0 | 2.0 | 0.00 | 0.00 | 0.00 | 94 | 999.7 |
| 20260901142509 | 82 | 203 | 3.0 | 3.0 | 0.00 | 0.00 | 0.00 | 93 | 999.7 |
| 20260901140821 | 82 | 225 | 2.0 | 2.0 | 0.00 | 0.00 | 0.00 | 93 | 999.3 |
| 20260901140321 | 82 | 270 | 2.0 | 2.0 | 0.00 | 0.00 | 0.00 | 93 | 999.3 |
| 20260901135820 | 82 | 315 | 2.0 | 2.0 | 0.00 | 0.00 | 0.00 | 93 | 999.0 |